Jordan, MT

8:24 PM MST on December 11, 2019 (GMT -0700)
Jordan

Weather History for KJDN - November, 2019

Change the Weather History Date:

Monday, November 11, 2019

  Actual Average Record
Temperature  
Mean Temperature 6 °F 32 °F  
Max Temperature 21 °F 46 °F 69 °F (1934)
Min Temperature -9 °F 19 °F -23 °F (1911)
Degree Days  
Heating Degree Days 59 33  
Month to date heating degree days 418 333  
Since 1 July heating degree days 1480 1306  
Cooling Degree Days 0 0  
Month to date cooling degree days 0 0  
Year to date cooling degree days 483 421  
Moisture  
Dew Point 0 °F    
Average Humidity 68    
Maximum Humidity 80    
Minimum Humidity 56    
Precipitation  
Precipitation 0.00 in 0.02 in 0.13 in (1938)
Month to date precipitation 0.59 0.20  
Year to date precipitation 18.71 12.22  
Snow  
Snow 0.00 in - - ()
Month to date snowfall 0.0  
Since 1 July snowfall 0.0  
Since 1 September snowfall 0.0  
Snow Depth 0.00 in    
Sea Level Pressure  
Sea Level Pressure 30.68 in    
Wind  
Wind Speed 3 mph (SSW)    
Max Wind Speed 14 mph    
Max Gust Speed 16 mph    
T = Trace of Precipitation, MM = Missing Value Source: NWS Daily Summary

Daily Weather History Graph

Daily Weather History Graph

Search for Another Location

Airport or City:

Astronomy

Nov. 11, 2019 Rise Set
Actual Time 7:05 AM MST 4:36 PM MST
Civil Twilight 6:32 AM MST 5:09 PM MST
Nautical Twilight 5:56 AM MST 5:46 PM MST
Astronomical Twilight 5:20 AM MST 6:22 PM MST
Moon 4:39 PM MST (11/11) 5:52 AM MST (11/11)
Length of Visible Light 10h 37m
Length of Day
9h 31m
Waxing Gibbous, 99% of the Moon is Illuminated
Nov 11
Waxing Gibbous
Nov 12
Full
Nov 19
Last Quarter
Nov 26
New
Dec 3
First Quarter

Hourly Weather History & Observations

Time (MST) Temp. Windchill Dew Point Humidity Pressure Visibility Wind Dir Wind Speed Gust Speed Precip Events Conditions
12:48 AM 3.9 °F - -6.0 °F 64% 30.87 in - Calm Calm - N/A   Unknown
1:48 AM 6.1 °F -0.9 °F -2.9 °F 67% 30.87 in - NNW 3.5 mph - N/A   Unknown
2:48 AM 3.9 °F - -4.0 °F 70% 30.87 in - Calm Calm - N/A   Unknown
3:48 AM -7.1 °F -15.9 °F -13.0 °F 75% 30.87 in - South 3.5 mph - N/A   Unknown
4:48 AM -2.9 °F - -9.9 °F 72% 30.86 in - Calm Calm - N/A   Unknown
5:48 AM -0.0 °F -7.9 °F -7.1 °F 72% 30.85 in - West 3.5 mph - N/A   Unknown
6:48 AM -2.0 °F - -9.0 °F 72% 30.84 in - Calm Calm - N/A   Unknown
7:48 AM -0.0 °F - -7.1 °F 72% 30.83 in - Calm Calm - N/A   Unknown
8:48 AM 5.0 °F - -2.9 °F 70% 30.81 in - Calm Calm - N/A   Unknown
9:48 AM 9.0 °F 2.4 °F 1.0 °F 70% 30.79 in - SSE 3.5 mph - N/A   Unknown
10:48 AM 14.0 °F 8.2 °F 3.9 °F 64% 30.75 in - SSE 3.5 mph - N/A   Unknown
11:48 AM 18.0 °F 8.7 °F 7.0 °F 62% 30.70 in - South 6.9 mph - N/A   Unknown
12:48 PM 19.0 °F 7.5 °F 7.0 °F 59% 30.66 in - South 10.4 mph - N/A   Unknown
1:48 PM 19.9 °F 8.6 °F 9.0 °F 62% 30.62 in - SSW 10.4 mph - N/A   Unknown
2:48 PM 19.9 °F 9.3 °F 10.0 °F 65% 30.60 in - SSW 9.2 mph - N/A   Unknown
3:48 PM 19.9 °F 14.9 °F 9.0 °F 62% 30.58 in - South 3.5 mph - N/A   Unknown
4:48 PM 18.0 °F 9.8 °F 8.1 °F 65% 30.53 in - South 5.8 mph - N/A   Unknown
7:48 PM 17.1 °F - 8.1 °F 68% 30.41 in - Calm Calm - N/A   Unknown
8:48 PM 6.1 °F - -0.0 °F 76% 30.37 in - Calm Calm - N/A   Unknown
9:48 PM 10.0 °F - 3.0 °F 73% 30.30 in - Calm Calm - N/A   Unknown
10:48 PM 12.9 °F - 6.1 °F 74% 30.25 in - Calm Calm - N/A   Unknown